DW9615 Home Hill AU current weather conditions

sailwx.info

Wind from 110 at 1 knots gusting 4

Air temperature 31.7° C
Dewpoint 16.4° C

Last reported at 2017-Apr-27 04:51 UTC.
Time now 2017-Apr-27 05:22 UTC

Location: S 19°40' E 147°25'.
View on Google Maps.

See reports from other nearby stations

  
Tides and Currents Weather Stations Pressure Air Temp Water Temp Dewpoint Dewpoint Depression Visibility Wind Speed Wind Dir Waves Ship Positions
date/time (UTC)wind fromknots sea level pressurealtimeterstation pressurevisibilityair tempwater tempwave heightnotes
2017-Apr-27 05:06 260 0 gusting 4 31.7
2017-Apr-27 04:51 110 1 gusting 4 31.7
2017-Apr-27 04:36 270 2 gusting 7 31.7
2017-Apr-27 04:21 170 0 gusting 5 31.7
2017-Apr-27 04:06 158 0 gusting 4 31.1
2017-Apr-27 03:51 175 1 gusting 6 31.1
2017-Apr-27 03:36 160 1 gusting 3 31.1
2017-Apr-27 03:21 136 1 gusting 7 30.6
2017-Apr-27 03:05 234 1 gusting 5 31.1
2017-Apr-27 02:50 158 3 gusting 6 30.6
2017-Apr-27 02:35 258 1 gusting 4 30.6
2017-Apr-27 02:20 183 2 gusting 8 30.6
2017-Apr-27 02:05 143 1 gusting 5 30.0
2017-Apr-27 01:50 303 2 gusting 8 29.4
2017-Apr-27 01:35 217 1 gusting 7 28.9
2017-Apr-27 01:20 170 2 gusting 6 28.9
2017-Apr-27 01:05 150 2 gusting 7 28.9
2017-Apr-27 00:50 267 0 gusting 5 28.3
2017-Apr-27 00:35 145 1 gusting 8 27.8
2017-Apr-27 00:20 175 0 gusting 8 27.8
2017-Apr-27 00:05 165 4 gusting 8 27.2
2017-Apr-26 23:50 310 0 gusting 8 26.7
2017-Apr-26 23:35 170 0 gusting 6 26.1
2017-Apr-26 23:20 225 0 gusting 5 25.6
2017-Apr-26 23:05 284 0 gusting 6 24.4
2017-Apr-26 22:50 295 0 gusting 3 23.9
2017-Apr-26 22:35 294 0 gusting 5 23.3
2017-Apr-26 22:20 283 0 gusting 3 22.2
2017-Apr-26 22:05 305 0 gusting 2 21.7
2017-Apr-26 21:49 320 20.6
2017-Apr-26 21:34 327 20.0
2017-Apr-26 21:19 327 19.4
2017-Apr-26 21:04 329 19.4
2017-Apr-26 20:49 345 18.9
2017-Apr-26 20:34 333 18.9
2017-Apr-26 20:19 335 18.3
2017-Apr-26 20:04 336 18.9
2017-Apr-26 19:49 337 18.3
2017-Apr-26 19:34 337 18.3
2017-Apr-26 19:19 337 18.3
2017-Apr-26 19:04 337 18.9
2017-Apr-26 18:49 337 18.9
2017-Apr-26 18:34 337 18.9
2017-Apr-26 18:19 337 19.4
2017-Apr-26 18:04 337 18.9
2017-Apr-26 17:49 337 18.9
2017-Apr-26 17:34 337 18.9
2017-Apr-26 17:19 337 18.9
2017-Apr-26 17:04 337 18.9
2017-Apr-26 16:49 338 18.9
2017-Apr-26 16:34 338 18.9
2017-Apr-26 16:19 338 18.9
2017-Apr-26 16:04 338 18.9
2017-Apr-26 15:49 338 18.9
2017-Apr-26 15:34 338 18.9
2017-Apr-26 15:19 338 18.9
2017-Apr-26 15:04 338 18.9
2017-Apr-26 14:49 338 18.9
2017-Apr-26 14:34 338 18.9
2017-Apr-26 14:19 338 18.9
2017-Apr-26 14:04 338 19.4
2017-Apr-26 13:49 338 19.4
2017-Apr-26 13:34 338 19.4
2017-Apr-26 13:19 338 19.4
2017-Apr-26 13:04 338 20.0
2017-Apr-26 12:49 338 20.0
2017-Apr-26 12:34 338 20.0
2017-Apr-26 12:19 338 20.0
2017-Apr-26 12:03 338 20.6
2017-Apr-26 11:48 338 20.6
2017-Apr-26 11:34 338 20.6
2017-Apr-26 11:18 338 20.6
2017-Apr-26 11:03 338 21.1
2017-Apr-26 10:48 338 21.1
2017-Apr-26 10:33 338 21.7
2017-Apr-26 10:18 338 21.7
2017-Apr-26 10:03 337 22.2
2017-Apr-26 09:48 337 22.2
2017-Apr-26 09:33 337 22.8
2017-Apr-26 09:18 337 22.8
2017-Apr-26 09:03 337 23.3
2017-Apr-26 08:48 335 23.9
2017-Apr-26 08:34 335 23.9
2017-Apr-26 08:18 335 23.9
2017-Apr-26 08:03 337 24.4
2017-Apr-26 07:48 336 1 gusting 4 25.0
2017-Apr-26 07:33 012 25.0
2017-Apr-26 07:18 052 0 gusting 4 25.6
2017-Apr-26 07:03 030 0 gusting 2 26.1
2017-Apr-26 06:48 001 1 gusting 9 26.7
2017-Apr-26 06:33 029 1 gusting 6 27.2
2017-Apr-26 06:18 029 1 gusting 6 27.2
2017-Apr-26 05:48 323 1 gusting 5 27.2
2017-Apr-26 05:33 033 1 gusting 6 27.8
2017-Apr-26 05:18 044 5 gusting 10 27.8
2017-Apr-26 05:03 338 3 gusting 6 27.2
2017-Apr-26 04:48 349 3 gusting 6 27.8
2017-Apr-26 04:33 340 2 gusting 8 28.3
2017-Apr-26 04:18 041 2 gusting 7 27.8
2017-Apr-26 04:03 339 4 gusting 8 28.3
2017-Apr-26 03:48 053 5 gusting 11 27.8
2017-Apr-26 03:33 018 1 gusting 8 28.3
2017-Apr-26 03:18 014 1 gusting 6 28.3
2017-Apr-26 03:03 043 1 gusting 5 28.3
2017-Apr-26 02:48 183 0 gusting 4 28.9
2017-Apr-26 02:33 037 0 gusting 5 28.3
2017-Apr-26 02:18 335 1 gusting 6 28.3
2017-Apr-26 02:03 071 27.8
2017-Apr-26 01:48 061 1 gusting 4 28.3
2017-Apr-26 01:33 060 0 gusting 4 27.8
2017-Apr-26 01:18 040 1 gusting 4 27.2
2017-Apr-26 01:03 067 1 gusting 6 27.2
2017-Apr-26 00:48 044 1 gusting 5 27.2
2017-Apr-26 00:32 348 26.1
2017-Apr-26 00:17 035 25.6
2017-Apr-26 00:02 062 1 gusting 5 25.6
2017-Apr-25 23:47 056 25.6
2017-Apr-25 23:32 157 25.6
2017-Apr-25 23:17 148 24.4
2017-Apr-25 23:02 165 24.4
2017-Apr-25 22:47 157 23.3
2017-Apr-25 22:32 143 22.8
2017-Apr-25 22:17 139 22.2
2017-Apr-25 22:02 175 21.1
2017-Apr-25 21:47 067 20.0
2017-Apr-25 21:32 062 19.4
2017-Apr-25 21:17 061 18.9
2017-Apr-25 21:02 060 18.3
2017-Apr-25 20:47 059 17.2
2017-Apr-25 20:32 059 17.8
2017-Apr-25 20:17 058 17.8
2017-Apr-25 20:02 058 17.8
2017-Apr-25 19:47 058 17.8
2017-Apr-25 19:32 058 17.8
2017-Apr-25 19:17 058 17.8
2017-Apr-25 19:02 057 17.8
2017-Apr-25 18:47 056 17.8
2017-Apr-25 18:32 056 18.3
2017-Apr-25 18:17 056 18.3
2017-Apr-25 18:02 056 18.3
2017-Apr-25 17:47 056 18.3
2017-Apr-25 17:32 056 18.3
2017-Apr-25 17:17 057 18.3
2017-Apr-25 17:02 057 18.3
2017-Apr-25 16:46 057 18.3
2017-Apr-25 16:32 057 18.3
2017-Apr-25 16:17 056 18.3
2017-Apr-25 16:01 056 18.3
2017-Apr-25 15:46 056 18.9
2017-Apr-25 15:31 057 18.9
2017-Apr-25 15:16 057 19.4
2017-Apr-25 15:01 056 19.4
2017-Apr-25 14:46 056 19.4
2017-Apr-25 14:31 056 19.4
2017-Apr-25 14:16 056 19.4
2017-Apr-25 14:01 056 19.4
2017-Apr-25 13:46 056 19.4
2017-Apr-25 13:31 056 20.0
2017-Apr-25 13:16 056 20.0
2017-Apr-25 13:01 056 20.0
2017-Apr-25 12:46 056 20.0
2017-Apr-25 12:31 056 20.0
2017-Apr-25 12:16 056 20.6
2017-Apr-25 12:01 056 20.6
2017-Apr-25 11:46 056 20.6
2017-Apr-25 11:31 055 21.1
2017-Apr-25 11:16 055 21.7
2017-Apr-25 11:01 055 22.2
2017-Apr-25 10:46 055 22.2
2017-Apr-25 10:31 055 22.8
2017-Apr-25 10:16 055 22.8
2017-Apr-25 10:01 055 22.8
2017-Apr-25 09:46 057 22.8
2017-Apr-25 09:31 055 23.3
2017-Apr-25 09:16 052 0 gusting 2 23.3
2017-Apr-25 09:01 056 0 gusting 3 23.3
2017-Apr-25 08:46 066 0 gusting 3 23.9
2017-Apr-25 08:31 054 23.9
2017-Apr-25 08:16 048 2 gusting 6 24.4
2017-Apr-25 08:01 042 2 gusting 6 24.4
2017-Apr-25 07:46 042 3 gusting 8 25.0
2017-Apr-25 07:31 036 5 gusting 9 25.0
2017-Apr-25 07:16 037 4 gusting 11 25.6
2017-Apr-25 07:01 040 4 gusting 11 25.6
2017-Apr-25 06:47 063 5 gusting 12 25.6
2017-Apr-25 06:38 053 4 gusting 13 26.1
2017-Apr-25 06:16 070 6 gusting 12 26.1
2017-Apr-25 06:01 038 5 gusting 13 26.7
2017-Apr-25 05:46 039 6 gusting 12 26.7
2017-Apr-25 05:31 063 5 gusting 11 27.2
2017-Apr-25 05:16 031 3 gusting 10 27.2
2017-Apr-25 05:01 069 5 gusting 11 27.8